Regional Weather Roundup
Issued by NWS

Home | Current Version | Previous Version | Text Only | Print | Product List | Glossary Off
Versions: 1 2 3 4 5 6 7 8 9 10 11 12 13 14 15 16 17 18 19 20 21 22 23 24 25 26 27

000
ASUS45 KBOU 250507
RWRCO

WEATHER ROUNDUP FOR COLORADO
NATIONAL WEATHER SERVICE DENVER/BOULDER CO
1100 PM MDT SAT JUN 24 2017

NOTE: "FAIR" INDICATES FEW OR NO CLOUDS BELOW 12000 FEET WITH NO
SIGNIFICANT WEATHER AND/OR OBSTRUCTIONS TO VISIBILITY.

COZ001>005-013-030-031-250600-
...NORTHWEST COLORADO...

CITY           SKY/WX    TMP DP  RH WIND       PRES   REMARKS
CRAIG          FAIR      53  41  63 CALM      30.31R
HAYDEN         FAIR      55  28  35 SE3       30.33R
MEEKER         FAIR      56  31  38 NE5       30.30R
RABBIT EARS PA FAIR      45  32  61 NE9       30.59S
STEAMBOAT SPGS FAIR      55  32  41 CALM      30.35S
WALDEN         FAIR      50  37  62 NE8       30.46S
$$

COZ006>008-011-250600-
...WEST CENTRAL VALLEYS...

CITY           SKY/WX    TMP DP  RH WIND       PRES   REMARKS
GRAND JUNCTION FAIR      80  25  13 NE15G25   30.13R
MONTROSE       FAIR      68  34  28 S8        30.22R
EAGLE          FAIR      61  29  29 E7        30.35R
RIFLE          FAIR      68  28  22 MISG      30.23R
DELTA          FAIR      77  24  14 E8        30.18R
NUCLA          FAIR      72  19  14 SE5       30.24R
$$

COZ017>023-064>068-250600-
...SOUTHWEST COLORADO...

CITY           SKY/WX    TMP DP  RH WIND       PRES   REMARKS
DURANGO        FAIR      67  15  13 NW3       30.22R
CORTEZ         FAIR      59  25  27 NE6       30.19R
PAGOSA SPRINGS FAIR      60  17  18 CALM      30.32R
TELLURIDE      FAIR      59  23  24 CALM      30.48R
WOLF CREEK PAS FAIR      52  16  24 N10G16    30.71R
$$

COZ009-010-012-014-032>034-037-058>063-250600-
...CENTRAL COLORADO...

CITY           SKY/WX    TMP DP  RH WIND       PRES   REMARKS
ASPEN          FAIR      53  29  39 S8        30.39R
BUENA VISTA    MOCLDY    59  45  58 SE3       30.48R
COPPER MTN     FAIR      50  18  27 CALM      30.69S
BERTHOUD PASS  HAZE      34  23  64 SE12G20   30.72S VSB<1/4 WCI  25
COTTONWOOD PAS MOCLDY    54  43  66 E9        30.58S
GUNNISON       FAIR      57  33  40 SE3       30.37R
KREMMLING      NOT AVBL
LEADVILLE      FAIR      47  37  68 SE5       30.55R
MONARCH PASS   FOG       41  41 100 NE25      30.77R VSB<1/4
SALIDA         MOCLDY    61  46  58 E5        30.52R
SUNLIGHT       FAIR      48  18  29 E3        30.63R
WILKERSON PASS CLOUDY    41  37  87 E6        30.69R
$$

COZ069>075-250600-
...SAN LUIS VALLEY/SANGRE DE CRISTO MOUNTAINS...

CITY           SKY/WX    TMP DP  RH WIND       PRES   REMARKS
ALAMOSA        FAIR      58  45  62 E16G25    30.35R
DEL NORTE      FAIR      59  44  57 E6        30.39R
LA VETA PASS   CLOUDY    45  43  93 NE16      30.69S
SAGUACHE       FAIR      63  41  45 N17G25    30.37R
$$

COZ035-036-038>040-250600-
...NORTHERN COLORADO FRONT RANGE...

CITY           SKY/WX    TMP DP  RH WIND       PRES   REMARKS
DENVER INTL AP CLOUDY    63  48  58 E17       30.35R
DMNS CITY PARK   N/A     64  47  54 E14G20    30.35S
AURORA         PTCLDY    60  48  65 E13       30.36S
FRONT RANGE AP CLOUDY    63  50  63 E16       30.37S
ERIE MUNI ARPT CLOUDY    66  47  51 E7        30.35S
BOULDER MUN AP CLOUDY    64  46  52 NE5       30.37S
CENTENNIAL     FAIR      60  48  64 NE7       30.37R
BROOMFIELD     CLOUDY    64  46  52 CALM      30.39R
FORT COLLINS   CLOUDY    66  46  48 E8        30.37R
LONGMONT       CLOUDY    68  47  46 E3        30.38R
$$

COZ041-046-047-076>085-087-088-250600-
...PIKES PEAK/PALMER DIVIDE AND SOUTHERN FOOTHILLS...

CITY           SKY/WX    TMP DP  RH WIND       PRES   REMARKS
COLO. SPRINGS  MOCLDY    63  46  54 SE6       30.40R
A. F. ACADEMY  CLOUDY    63  45  51 S9        30.41R
SCHRIEVER AFB  MOCLDY    60  45  57 E3        30.41R
CHEYENNE MTN   CLOUDY    60  45  57 S12       30.38R
ELLICOTT       CLOUDY     1   1 100 SE9       30.38R WCI -14
FALCON           N/A     58  44  58 SE3       30.44S
FORT CARSON    CLOUDY    65  47  52 S3        30.37R
LIMON          FAIR      54  44  69 CALM      30.35S
MONUMENT HILL  CLOUDY    54  45  71 S8        30.45R
CANON CITY     CLOUDY    70  54  56 E3        30.34R
WALSENBURG     FAIR      61  50  67 N9        30.37R
TRINIDAD       CLOUDY    67  49  52 W10       30.34R
$$

COZ042>045-048>051-090-091-250600-
...NORTHEAST COLORADO...

CITY           SKY/WX    TMP DP  RH WIND       PRES   REMARKS
GREELEY ARPT   FAIR      64  49  57 E7        30.35R
AKRON          CLOUDY    61  47  59 SE9       30.36R
BURLINGTON     FAIR      60  48  64 E12       30.32S
WRAY           FAIR      61  46  59 CALM      30.33R
YUMA           MOCLDY    59  50  72 SE5       30.34R
STERLING       CLOUDY    63  50  63 SE3       30.32S
HOLYOKE        NOT AVBL
FORT MORGAN    MOCLDY    59  50  71 E7        30.35S
$$

COZ086-089-092>099-250600-
...SOUTHEAST COLORADO...

CITY           SKY/WX    TMP DP  RH WIND       PRES   REMARKS
PUEBLO         CLOUDY    70  49  47 E9        30.29S
LA JUNTA       FAIR      67  53  61 SE10      30.28R
LAMAR          FAIR      68  53  58 S13       30.25F
SPRINGFIELD      N/A     60  54  80 SE8       30.31S
$$




USA.gov is the U.S. government's official web portal to all federal, state and local government web resources and services.